Showing default

JY1SAT, 43803

Orbit data source: Space-Track

JY1SAT, 43803 is a payload satellite owned by JUST (JO) in SSO that was launched on Mon, 03 Dec 2018 UTC via an FALCON 9 launch vehicle from the Air Force Western Test Range (AFWTR). Payload-class satellites include a variety of spacecraft equipped with specific instruments for various scientific and technological missions. These include communications satellites like Starlink; space stations such as the ISS; scientific satellites like the Hubble; Earth observation satellites from companies like Planet Labs, Umbra, and HawkEye 360; GPS; miniature CubeSats for education and research; and military/defense satellites.

Loading next visibility...
Identifier
43803, 2018-099AX
Orbit
SSO
Country
Flag of JOJO / JOR
Related business
Manufacturer
JUST
Mission
Operational Amateur Technology
Bus & Motor
CUBESAT 1U, Unknown motor
Mass
1 kg wet, 1 kg dry
Launch date (UTC)
2018-12-03 (8 years ago)
Launch vehicle
FALCON 9
Launch site
Air Force Western Test Range (AFWTR)
Object type
Payload
Rocket body
Debris
Shape & HBR
Box, 0.1 m
Radar Cross Section
0.015 m², Medium (>0.1 m² and < 1m²)

Expand to show TLE details & history
Last TLE update: 1 day ago

TLE from 1 day ago
0 JY1SAT
1 43803U 18099AX  26235.12409967  .00016465  00000-0  47682-3 0  9993
2 43803  97.4079 298.2655 0006189  47.3203 312.8561 15.35634912423897
Epoch: 2026-08-23T02:58Z
TLE epoch observation values (Epoch: 2026-08-23T02:58:42.211Z)
Latitude
-0.00003°
Longitude
-77.83504°
Altitude
459.269 km
Speed
7.639 km/s
True Right ascension
19h 53m 03s
True Declination
0° 00' 00"
Sunlit
Object was in full shadow at epoch
Visualization orbit readout
Latitude
Unknown
Longitude
Unknown
Altitude
Unknown
Speed
Unknown
Apparent Right ascension
Unknown
Apparent Declination
Unknown
Sunlit
N/A
Visualization observer readout
Local Sidereal Time
20:03:52
Azimuth
Unknown
Elevation
Unknown
Doppler factor
Unknown
Orbital elements
Apogee altitude
460.21 km
Perigee altitude
451.751 km
Semi-major axis
6,834.117 km
Eccentricity
0.00062
Inclination
97.4079°
RAAN
298.2655°
Arg. of periapsis
47.3203°
True anomaly
312.80408°
Mean anomaly
312.8561°
Eccentric anomaly
312.83009°
Mean motion
3.84167 °/min
Orbital period
93.71 mins
BSTAR
0.00047682
Loading maneuver chart data...
Computing Atmospheric mass density...
Loading historical data...
Loading historical data...
Loading historical data...
Loading historical data...
Loading historical data...
Loading historical data...
Loading historical data...

Documentation

Showing up to 5 results
|